Location: Tuebingen alte Sternwarte
(48.5376°N, 9.0555°E)
Time: 15:45:47
(UTC+02:00)

OTV 5 (USA 277) - Pass Details

Date: 22 June 2018
Orbit: 312 x 321 km, 54.5° (Epoch: 05 July)

Event Time Altitude Azimuth Distance (km) Brightness Sun altitude
Rises 02:46:15 0° 296° (WNW) 2,054 ? -15.8°
Reaches altitude 10° 02:48:17 10° 287° (WNW) 1,222 ? -15.7°
Enters shadow 02:49:24 20° 274° (W) 815 ? -15.6°
